User: anonymous   Login
Location: Unspecified
(0.0000°N, 0.0000°E)
Time: 19:19:08
(UTC+00:00)
Language:

Kitsat-3 - Orbit

View from above orbital plane
View from above orbital plane
View from above satellite
View from above satellite

Ground track
Ground track

The orbit data is extracted from the following two-line orbital elements,

1 25756U 99029A   19077.77534529 +.00000004 +00000-0 +12073-4 0  9991
2 25756 098.4397 010.8137 0015000 079.5412 280.7474 14.53747269050219
Epoch (UTC): 18 March 2019 18:36:29
Eccentricity: 0.0015000
inclination: 98.4397°
perigee height: 703 km
apogee height: 724 km
right ascension of ascending node: 10.8137°
argument of perigee: 79.5412°
revolutions per day: 14.53747269
mean anomaly at epoch: 280.7474°
orbit number at epoch: 5021

The dashed part of the orbit path shows where the satellite is in the earth's shadow,  

DLR